Windsor Heights, WV

4:24 PM EDT on August 29, 2016 (GMT -0400)
Wheeling-Ohio County

Weather History for KHLG - February, 2013

Change the Weather History Date:

Wednesday, February 6, 2013

  Actual Average Record
Temperature  
Mean Temperature 26 °F 30 °F  
Max Temperature 32 °F 38 °F 63 °F (2008)
Min Temperature 20 °F 23 °F -4 °F (2007)
Degree Days  
Heating Degree Days 39 35  
Month to date heating degree days 258 210  
Since 1 July heating degree days 3289 3452  
Cooling Degree Days 0    
Month to date cooling degree days 0  
Year to date cooling degree days 0  
Moisture  
Dew Point 21 °F    
Average Humidity 77    
Maximum Humidity 100    
Minimum Humidity 53    
Precipitation  
Precipitation T in 0.08 in 0.57 in (2008)
Month to date precipitation 0.30 0.45  
Sea Level Pressure  
Sea Level Pressure 30.21 in    
Wind  
Wind Speed 6 mph (West)    
Max Wind Speed 14 mph    
Max Gust Speed 21 mph    
Visibility 8 miles    
Events      
T = Trace of Precipitation, MM = Missing Value Source: NWS Daily Summary

Daily Weather History Graph

Daily Weather History Graph

Search for Another Location

Airport or City:

Trip Planner

Search our weather history database for the weather conditions in past years. The results will help you decide how hot, cold, wet, or windy it might be!

Date:

Astronomy

Feb. 06, 2013 Rise Set
Actual Time 7:26 AM EST 5:47 PM EST
Civil Twilight 6:57 AM EST 6:16 PM EST
Nautical Twilight 6:25 AM EST 6:48 PM EST
Astronomical Twilight 5:53 AM EST 7:20 PM EST
Moon 4:08 AM EST (2/6) 2:04 PM EST (2/6)
Length of Visible Light 11h 18m
Length of Day
10h 21m
Waning Crescent, 17% of the Moon is Illuminated
Feb 6
Waning Crescent
Feb 10
New
Feb 17
First Quarter
Feb 25
Full
Mar 4
Last Quarter

Hourly Weather History & Observations

Time (EST) Temp. Windchill Dew Point Humidity Pressure Visibility Wind Dir Wind Speed Gust Speed Precip Events Conditions
12:49 AM 26.6 °F - 26.6 °F 100% 29.94 in 5.0 mi Calm Calm - N/A   Overcast
12:53 AM 27.0 °F 23.0 °F 26.1 °F 96% 29.99 in 5.0 mi West 3.5 mph - N/A   Overcast
2:53 AM 28.0 °F 20.0 °F 24.1 °F 85% 30.05 in 6.0 mi West 8.1 mph - N/A   Overcast
3:53 AM 28.0 °F 21.7 °F 24.1 °F 85% 30.06 in 7.0 mi SSW 5.8 mph - N/A   Overcast
4:37 AM 28.4 °F 21.2 °F 24.8 °F 86% 30.05 in 7.0 mi WSW 6.9 mph - N/A   Overcast
4:53 AM 28.0 °F 20.8 °F 24.1 °F 85% 30.10 in 7.0 mi WSW 6.9 mph - N/A   Overcast
5:53 AM 28.9 °F 20.4 °F 24.1 °F 82% 30.14 in 6.0 mi WSW 9.2 mph - N/A   Haze
6:53 AM 28.0 °F 21.7 °F 25.0 °F 88% 30.16 in 4.0 mi West 5.8 mph - N/A   Overcast
7:14 AM 28.4 °F 21.2 °F 24.8 °F 86% 30.12 in 5.0 mi West 6.9 mph - N/A   Overcast
7:53 AM 28.0 °F 18.1 °F 25.0 °F 88% 30.19 in 4.0 mi NW 11.5 mph - N/A   Overcast
8:53 AM 28.9 °F 22.8 °F 24.1 °F 82% 30.22 in 6.0 mi West 5.8 mph - N/A   Haze
9:53 AM 28.9 °F 20.4 °F 23.0 °F 78% 30.22 in 7.0 mi West 9.2 mph - N/A   Overcast
10:53 AM 28.0 °F 20.0 °F 21.0 °F 75% 30.26 in 10.0 mi WNW 8.1 mph - 0.00 in   Overcast
11:53 AM 28.9 °F 21.1 °F 19.0 °F 67% 30.27 in 10.0 mi WNW 8.1 mph - N/A   Overcast
12:11 PM 28.4 °F 21.2 °F 19.4 °F 69% 30.21 in 10.0 mi NNW 6.9 mph - N/A   Overcast
12:46 PM 30.2 °F 25.4 °F 19.4 °F 64% 30.21 in 10.0 mi NW 4.6 mph - N/A   Overcast
12:53 PM 30.0 °F 23.2 °F 19.0 °F 64% 30.26 in 10.0 mi WNW 6.9 mph - N/A   Overcast
1:13 PM 30.2 °F 24.3 °F 19.4 °F 64% 30.22 in 10.0 mi Variable 5.8 mph - N/A   Overcast
1:53 PM 30.0 °F 26.5 °F 19.0 °F 64% 30.27 in 10.0 mi West 3.5 mph - N/A   Overcast
2:42 PM 30.2 °F 23.4 °F 17.6 °F 60% 30.23 in 10.0 mi WNW 6.9 mph - N/A   Overcast
2:53 PM 32.0 °F 24.2 °F 18.0 °F 56% 30.29 in 10.0 mi WNW 9.2 mph 16.1 mph N/A   Overcast
3:53 PM 32.0 °F 26.4 °F 17.1 °F 54% 30.29 in 10.0 mi NW 5.8 mph - N/A   Mostly Cloudy
4:53 PM 30.9 °F 26.2 °F 17.1 °F 57% 30.30 in 10.0 mi WSW 4.6 mph - N/A   Clear
5:53 PM 30.0 °F - 16.0 °F 56% 30.31 in 10.0 mi Calm Calm - N/A   Clear
6:53 PM 28.0 °F - 16.0 °F 61% 30.32 in 10.0 mi Calm Calm - N/A   Clear
7:53 PM 26.1 °F 20.5 °F 17.1 °F 69% 30.34 in 10.0 mi East 4.6 mph - N/A   Clear
8:53 PM 24.1 °F 18.2 °F 17.1 °F 75% 30.34 in 10.0 mi ESE 4.6 mph - N/A   Clear
9:53 PM 25.0 °F 19.3 °F 16.0 °F 69% 30.34 in 10.0 mi East 4.6 mph - N/A   Clear
10:53 PM 24.1 °F 15.2 °F 16.0 °F 71% 30.31 in 10.0 mi East 8.1 mph - N/A   Clear
11:53 PM 21.0 °F 12.4 °F 15.1 °F 78% 30.31 in 10.0 mi ESE 6.9 mph - N/A   Clear